Simultaneous Nadir Overpasses (SNOs) Predictions

Prediction of SNOs between GOES-16 and METOP-B Satellite Orbit:

Table of predicted SNOs for the next 14.0 days since TLE Epoch: 1/13/2024
Index Date Time (GOES-16) GOES-16 Lat,Lon METOP-B Lat,Lon Distance(km) Time Diff (sec)
1 01/14/2024 02:37:04 0.01, -75.20 -0.45, -77.30 238.09 80
2 01/15/2024 02:13:47 0.01, -75.21 0.63, -72.31 330.18 80
3 01/16/2024 14:35:22 0.00, -75.25 0.37, -76.90 187.82 80
4 01/17/2024 14:12:06 -0.00, -75.26 -0.77, -71.92 380.88 80
5 01/19/2024 02:33:49 0.00, -75.25 -0.30, -76.53 146.01 80
6 01/20/2024 02:10:33 0.01, -75.27 0.85, -71.56 422.84 80
7 01/21/2024 14:32:07 -0.01, -75.31 0.20, -76.14 94.58 80
8 01/22/2024 14:08:50 -0.02, -75.33 -0.96, -71.16 474.61 80
9 01/24/2024 02:30:34 0.02, -75.33 -0.10, -75.78 51.52 80
10 01/26/2024 14:28:52 -0.01, -75.40 -0.03, -75.38 3.06 80
